GW0098 Weather Reports


time (UTC)temp
F
wind
direction
speed
knots
gust
knots
rain 1hr
in
rain 24hr
in
rain mn
in
humidity
%
barometer
mb
20260507103125 45 0.0 0.0 0.00 0.00 0.00 86 1019.2
20260507101553 45 0.0 0.0 0.00 0.00 0.00 85 1019.1
20260507100108 46 0.0 0.0 0.00 0.00 0.00 84 1019.1
20260507094558 46 0.0 0.0 0.00 0.00 0.00 84 1019.1
20260507093056 46 0.0 0.0 0.00 0.00 0.00 86 1019.3
20260507091554 46 0.0 0.0 0.00 0.00 0.00 85 1019.3
20260507090059 46 0.0 0.0 0.00 0.00 0.00 83 1018.7
20260507084603 47 0.0 0.0 0.00 0.00 0.00 82 1018.6
20260507083054 48 0.0 0.0 0.00 0.00 0.00 80 1018.5
20260507081558 49 0.0 0.0 0.00 0.00 0.00 78 1018.8
20260507080055 49 0.0 0.0 0.00 0.00 0.00 81 1019.0
20260507074557 49 0.0 0.0 0.00 0.00 0.00 80 1019.1
20260507073054 50 0.0 0.0 0.00 0.00 0.00 77 1019.0
20260507071610 50 0.0 0.0 0.00 0.00 0.00 76 1018.8
20260507064556 51 0.0 0.0 0.00 0.00 0.00 75 1019.1
20260507063057 51 0.0 0.0 0.00 0.00 0.00 74 1018.9
20260507061555 52 0.0 0.0 0.00 0.00 0.00 73 1018.7
20260507054609 52 0.0 0.0 0.00 0.00 0.00 73 1018.9
20260507053104 53 0.0 0.0 0.00 0.00 0.00 73 1018.9
20260507051558 53 0.0 0.0 0.00 0.00 0.00 71 1018.8
20260507050059 54 0.0 0.0 0.00 0.00 0.00 70 1018.7
20260507044556 54 0.0 0.0 0.00 0.00 0.00 71 1018.5
20260507043053 54 0.0 0.0 0.00 0.00 0.00 72 1018.5
20260507041602 54 0.0 0.0 0.00 0.00 0.00 73 1018.5
20260507040055 52 0.0 0.0 0.00 0.00 0.00 79 1018.4
20260507034605 52 0.0 0.0 0.00 0.00 0.00 81 1018.4
20260507033056 52 0.0 0.0 0.00 0.00 0.00 80 1018.2
20260507031600 53 0.0 0.0 0.00 0.00 0.00 80 1017.8
20260507030053 53 0.0 0.0 0.00 0.00 0.00 80 1017.9
20260507024556 54 0.0 0.0 0.00 0.00 0.00 79 1017.9
20260507023056 55 0.0 0.0 0.00 0.00 0.00 78 1017.6
20260507021618 55 0.0 0.0 0.00 0.00 0.00 77 1017.3
20260507020110 56 0.0 0.0 0.00 0.00 0.00 74 1017.4
20260507014620 58 0.0 0.0 0.00 0.00 0.00 71 1017.1
20260507013053 59 0.0 0.0 0.00 0.00 0.00 69 1016.8
20260507011558 60 0.0 0.0 0.00 0.00 0.00 67 1016.8
20260507010054 60 0.0 0.0 0.00 0.00 0.00 65 1016.6
20260507004554 60 0.0 0.0 0.00 0.00 0.00 64 1016.5
20260507003056 61 0.0 0.0 0.00 0.00 0.00 64 1016.6
20260507001602 61 0.0 0.0 0.00 0.00 0.00 63 1016.6
20260507000111 61 0.0 0.0 0.00 0.00 0.00 63 1016.4
20260506234615 61 0.0 0.0 0.00 0.00 0.00 61 1016.4
20260506233056 62 0.0 0.0 0.00 0.00 0.00 62 1016.4
20260506231553 62 0.0 0.0 0.00 0.00 0.00 61 1016.4
20260506230103 62 0.0 0.0 0.00 0.00 0.00 61 1016.4
20260506224552 63 0.0 0.0 0.00 0.00 0.00 61 1016.2
20260506223053 62 0.0 0.0 0.00 0.00 0.00 62 1016.0
20260506221600 63 0.0 0.0 0.00 0.00 0.00 60 1015.9
20260506220056 62 0.0 0.0 0.00 0.00 0.00 60 1015.6
20260506214600 62 0.0 0.0 0.00 0.00 0.00 63 1015.4
20260506213059 62 0.0 0.0 0.00 0.00 0.00 62 1015.1
20260506211556 62 0.0 0.0 0.00 0.00 0.00 61 1015.4
20260506210055 61 0.0 0.0 0.00 0.00 0.00 62 1015.3
20260506204556 60 0.0 0.0 0.00 0.00 0.00 65 1015.3
20260506203054 59 0.0 0.0 0.00 0.00 0.00 65 1015.5
20260506201553 58 0.0 0.0 0.00 0.00 0.00 69 1015.4
20260506200058 57 0.0 0.0 0.00 0.00 0.00 71 1016.1
20260506194557 57 0.0 0.0 0.00 0.00 0.00 71 1016.2
20260506193055 56 0.0 0.0 0.00 0.00 0.00 70 1016.2
20260506191601 57 0.0 0.0 0.00 0.00 0.00 69 1017.2
20260506190054 57 0.0 0.0 0.00 0.00 0.00 68 1017.3
20260506184600 57 0.0 0.0 0.00 0.00 0.00 72 1017.3
20260506183105 56 0.0 0.0 0.00 0.00 0.00 70 1017.4
20260506181608 56 0.0 0.0 0.00 0.00 0.00 70 1017.3
20260506180056 56 0.0 0.0 0.00 0.00 0.00 70 1017.7
20260506174552 56 0.0 0.0 0.00 0.00 0.00 70 1017.2
20260506173126 56 0.0 0.0 0.00 0.00 0.00 70 1017.3
20260506171604 56 0.0 0.0 0.00 0.00 0.00 72 1017.6
20260506170107 55 0.0 0.0 0.00 0.00 0.00 73 1017.9
20260506164556 54 0.0 0.0 0.00 0.00 0.00 74 1018.2
20260506163101 53 0.0 0.0 0.00 0.00 0.00 75 1018.9
20260506161554 53 0.0 0.0 0.00 0.00 0.00 74 1018.4
20260506160058 53 0.0 0.0 0.00 0.00 0.00 74 1017.6
20260506154613 53 0.0 0.0 0.00 0.00 0.00 75 1017.6
20260506153054 52 0.0 0.0 0.00 0.00 0.00 76 1017.5
20260506151558 52 0.0 0.0 0.00 0.00 0.00 76 1017.1
20260506150055 52 0.0 0.0 0.00 0.00 0.00 76 1017.0
20260506144559 51 0.0 0.0 0.00 0.00 0.00 75 1016.7
20260506143052 51 0.0 0.0 0.00 0.00 0.00 75 1016.6
20260506141600 51 0.0 0.0 0.00 0.00 0.00 76 1016.3
20260506140054 51 0.0 0.0 0.00 0.00 0.00 74 1016.3
20260506134554 51 0.0 0.0 0.00 0.00 0.00 74 1016.1
20260506133102 51 0.0 0.0 0.00 0.00 0.00 77 1016.2
20260506131554 51 0.0 0.0 0.00 0.00 0.00 79 1015.9
20260506130119 50 0.0 0.0 0.00 0.00 0.00 79 1015.9
20260506124554 50 0.0 0.0 0.00 0.00 0.00 81 1015.6
20260506123053 50 0.0 0.0 0.00 0.00 0.00 80 1015.8
20260506121556 50 0.0 0.0 0.00 0.00 0.00 81 1016.0
20260506114604 50 0.0 0.0 0.00 0.00 0.00 80 1015.4
20260506113056 50 0.0 0.0 0.00 0.00 0.00 80 1014.6
20260506111557 51 0.0 0.0 0.00 0.00 0.00 79 1014.7
20260506110057 51 0.0 0.0 0.00 0.00 0.00 79 1014.6
20260506104632 51 0.0 0.0 0.00 0.00 0.00 79 1014.4